Time,TemperatureF,DewpointF,PressureIn,WindDirection,WindDirectionDegrees,WindSpeedMPH,WindSpeedGustMPH,Humidity,HourlyPrecipIn,Conditions,Clouds,dailyrainin,SoftwareType,DateUTC
2013-06-19 00:08:00,54.3,54.0,29.86,NW,311,0.0,12.0,99,0.00,,,0.00,weatherlink.com 1.10,2013-06-19 04:08:00,
2013-06-19 00:23:00,54.2,54.0,29.86,SW,216,4.0,8.0,99,0.00,,,0.00,weatherlink.com 1.10,2013-06-19 04:23:00,
2013-06-19 00:38:00,53.9,54.0,29.86,WSW,248,0.0,5.0,99,0.00,,,0.00,weatherlink.com 1.10,2013-06-19 04:38:00,
2013-06-19 00:53:00,53.7,54.0,29.86,WSW,250,1.0,5.0,99,0.00,,,0.00,weatherlink.com 1.10,2013-06-19 04:53:00,
2013-06-19 01:08:00,53.7,54.0,29.86,SSW,206,4.0,6.0,99,0.00,,,0.00,weatherlink.com 1.10,2013-06-19 05:08:00,
2013-06-19 01:23:00,53.4,53.0,29.86,SW,232,4.0,4.0,99,0.00,,,0.00,weatherlink.com 1.10,2013-06-19 05:23:00,
2013-06-19 01:38:00,53.6,53.0,29.85,SW,217,3.0,6.0,99,0.00,,,0.00,weatherlink.com 1.10,2013-06-19 05:38:00,
2013-06-19 01:53:00,53.3,53.0,29.86,SW,235,2.0,5.0,99,0.00,,,0.00,weatherlink.com 1.10,2013-06-19 05:53:00,
2013-06-19 02:08:00,53.3,53.0,29.86,West,262,0.0,8.0,99,0.00,,,0.00,weatherlink.com 1.10,2013-06-19 06:08:00,
2013-06-19 02:23:00,53.2,53.0,29.85,SW,216,4.0,6.0,99,0.00,,,0.00,weatherlink.com 1.10,2013-06-19 06:23:00,
2013-06-19 02:38:00,52.8,53.0,29.85,SW,225,4.0,5.0,99,0.00,,,0.00,weatherlink.com 1.10,2013-06-19 06:38:00,
2013-06-19 02:53:00,52.4,52.0,29.85,SW,234,1.0,4.0,99,0.00,,,0.00,weatherlink.com 1.10,2013-06-19 06:53:00,
2013-06-19 03:08:00,52.2,52.0,29.86,SW,225,3.0,5.0,99,0.00,,,0.00,weatherlink.com 1.10,2013-06-19 07:08:00,
2013-06-19 03:23:00,52.4,52.0,29.86,SW,227,0.0,5.0,99,0.00,,,0.00,weatherlink.com 1.10,2013-06-19 07:23:00,
2013-06-19 03:38:00,52.1,52.0,29.86,SW,233,0.0,4.0,99,0.00,,,0.00,weatherlink.com 1.10,2013-06-19 07:38:00,
2013-06-19 03:53:00,51.9,52.0,29.86,SW,221,2.0,4.0,99,0.00,,,0.00,weatherlink.com 1.10,2013-06-19 07:53:00,
2013-06-19 04:08:00,52.0,52.0,29.86,SW,222,0.0,5.0,99,0.00,,,0.00,weatherlink.com 1.10,2013-06-19 08:08:00,
2013-06-19 04:23:00,51.8,52.0,29.86,SW,216,2.0,4.0,99,0.00,,,0.00,weatherlink.com 1.10,2013-06-19 08:23:00,
2013-06-19 04:38:00,51.9,52.0,29.86,SSW,212,0.0,3.0,99,0.00,,,0.00,weatherlink.com 1.10,2013-06-19 08:38:00,
2013-06-19 04:53:00,51.7,52.0,29.86,SSW,212,1.0,1.0,99,0.00,,,0.00,weatherlink.com 1.10,2013-06-19 08:53:00,
2013-06-19 05:08:00,51.9,52.0,29.87,SSW,212,0.0,3.0,99,0.00,,,0.00,weatherlink.com 1.10,2013-06-19 09:08:00,
2013-06-19 05:23:00,52.2,52.0,29.87,SSW,209,2.0,4.0,99,0.00,,,0.00,weatherlink.com 1.10,2013-06-19 09:23:00,
2013-06-19 05:38:00,52.3,52.0,29.88,SSW,209,0.0,3.0,98,0.00,,,0.00,weatherlink.com 1.10,2013-06-19 09:38:00,
2013-06-19 05:53:00,52.0,52.0,29.88,SSW,209,0.0,2.0,98,0.00,,,0.00,weatherlink.com 1.10,2013-06-19 09:53:00,
2013-06-19 06:08:00,52.0,52.0,29.89,SSW,209,0.0,2.0,98,0.00,,,0.00,weatherlink.com 1.10,2013-06-19 10:08:00,
2013-06-19 06:23:00,52.1,52.0,29.90,SSW,209,0.0,1.0,98,0.00,,,0.00,weatherlink.com 1.10,2013-06-19 10:23:00,
2013-06-19 06:38:00,52.5,52.0,29.90,SSW,209,0.0,1.0,98,0.00,,,0.00,weatherlink.com 1.10,2013-06-19 10:38:00,
2013-06-19 06:53:00,52.8,52.0,29.91,SSW,209,0.0,0.0,98,0.00,,,0.00,weatherlink.com 1.10,2013-06-19 10:53:00,
2013-06-19 07:08:00,53.5,53.0,29.92,West,281,1.0,3.0,97,0.00,,,0.00,weatherlink.com 1.10,2013-06-19 11:08:00,
2013-06-19 07:24:00,55.3,53.0,29.92,West,281,0.0,2.0,93,0.00,,,0.00,weatherlink.com 1.10,2013-06-19 11:24:00,
2013-06-19 07:39:00,56.5,53.0,29.93,West,281,0.0,2.0,89,0.00,,,0.00,weatherlink.com 1.10,2013-06-19 11:39:00,
2013-06-19 07:54:00,57.6,54.0,29.93,West,281,0.0,1.0,87,0.00,,,0.00,weatherlink.com 1.10,2013-06-19 11:54:00,
2013-06-19 08:09:00,58.2,55.0,29.94,West,281,0.0,0.0,89,0.00,,,0.00,weatherlink.com 1.10,2013-06-19 12:09:00,
2013-06-19 08:24:00,58.3,55.0,29.95,West,280,1.0,2.0,88,0.00,,,0.00,weatherlink.com 1.10,2013-06-19 12:24:00,
2013-06-19 08:39:00,59.5,55.0,29.95,West,280,0.0,1.0,86,0.00,,,0.00,weatherlink.com 1.10,2013-06-19 12:39:00,
2013-06-19 08:54:00,59.8,55.0,29.96,SW,233,0.0,3.0,84,0.00,,,0.00,weatherlink.com 1.10,2013-06-19 12:54:00,
2013-06-19 09:09:00,59.7,55.0,29.97,WNW,289,2.0,4.0,83,0.00,,,0.00,weatherlink.com 1.10,2013-06-19 13:09:00,
2013-06-19 09:24:00,59.6,56.0,29.97,West,271,5.0,5.0,86,0.00,,,0.00,weatherlink.com 1.10,2013-06-19 13:24:00,
2013-06-19 09:39:00,59.8,55.0,29.97,WNW,296,2.0,5.0,83,0.00,,,0.00,weatherlink.com 1.10,2013-06-19 13:39:00,
2013-06-19 09:54:00,60.1,54.0,29.96,WNW,292,1.0,3.0,81,0.00,,,0.00,weatherlink.com 1.10,2013-06-19 13:54:00,
2013-06-19 10:09:00,60.6,55.0,29.96,West,265,0.0,3.0,83,0.00,,,0.00,weatherlink.com 1.10,2013-06-19 14:09:00,
2013-06-19 10:24:00,60.4,55.0,29.96,West,271,0.0,5.0,82,0.00,,,0.00,weatherlink.com 1.10,2013-06-19 14:24:00,
2013-06-19 10:39:00,61.4,57.0,29.96,SW,219,4.0,6.0,84,0.00,,,0.00,weatherlink.com 1.10,2013-06-19 14:39:00,
2013-06-19 10:54:00,61.6,55.0,29.96,SW,219,3.0,6.0,79,0.00,,,0.00,weatherlink.com 1.10,2013-06-19 14:54:00,
2013-06-19 11:09:00,62.1,54.0,29.97,SSW,193,0.0,7.0,76,0.00,,,0.00,weatherlink.com 1.10,2013-06-19 15:09:00,
2013-06-19 11:24:00,62.6,54.0,29.97,SW,229,1.0,7.0,74,0.00,,,0.00,weatherlink.com 1.10,2013-06-19 15:24:00,
2013-06-19 11:39:00,63.0,54.0,29.97,SW,227,0.0,5.0,73,0.00,,,0.00,weatherlink.com 1.10,2013-06-19 15:39:00,
2013-06-19 11:54:00,63.0,56.0,29.98,South,191,0.0,6.0,77,0.00,,,0.00,weatherlink.com 1.10,2013-06-19 15:54:00,
2013-06-19 12:09:00,63.5,55.0,29.98,WSW,247,0.0,6.0,75,0.00,,,0.00,weatherlink.com 1.10,2013-06-19 16:09:00,
2013-06-19 12:24:00,64.0,56.0,29.98,WNW,296,3.0,7.0,74,0.00,,,0.00,weatherlink.com 1.10,2013-06-19 16:24:00,
2013-06-19 12:39:00,64.3,54.0,29.98,West,273,2.0,6.0,70,0.00,,,0.00,weatherlink.com 1.10,2013-06-19 16:39:00,
2013-06-19 12:54:00,64.1,55.0,29.98,WNW,286,3.0,8.0,72,0.00,,,0.00,weatherlink.com 1.10,2013-06-19 16:54:00,
2013-06-19 13:09:00,63.9,54.0,29.99,SSE,149,1.0,7.0,69,0.00,,,0.00,weatherlink.com 1.10,2013-06-19 17:09:00,
2013-06-19 13:24:00,64.5,55.0,29.99,NW,306,1.0,5.0,72,0.00,,,0.00,weatherlink.com 1.10,2013-06-19 17:24:00,
2013-06-19 13:39:00,65.0,54.0,29.99,SW,232,1.0,6.0,68,0.00,,,0.00,weatherlink.com 1.10,2013-06-19 17:39:00,
2013-06-19 14:09:00,64.9,55.0,29.99,WSW,254,0.0,4.0,70,0.00,,,0.00,weatherlink.com 1.10,2013-06-19 18:09:00,
2013-06-19 14:24:00,65.4,55.0,29.99,SSW,197,0.0,3.0,68,0.00,,,0.00,weatherlink.com 1.10,2013-06-19 18:24:00,
2013-06-19 14:40:00,65.4,55.0,29.98,SW,236,2.0,5.0,69,0.00,,,0.00,weatherlink.com 1.10,2013-06-19 18:40:00,
2013-06-19 14:55:00,64.9,59.0,29.98,NNE,24,1.0,2.0,81,0.00,,,0.00,weatherlink.com 1.10,2013-06-19 18:55:00,
2013-06-19 15:10:00,63.7,59.0,29.98,SE,134,0.0,2.0,85,0.00,,,0.00,weatherlink.com 1.10,2013-06-19 19:10:00,
2013-06-19 15:25:00,62.8,59.0,29.98,East,83,0.0,2.0,86,0.00,,,0.00,weatherlink.com 1.10,2013-06-19 19:25:00,
2013-06-19 15:40:00,62.5,59.0,29.98,ESE,103,0.0,1.0,88,0.00,,,0.00,weatherlink.com 1.10,2013-06-19 19:40:00,
2013-06-19 15:55:00,62.1,59.0,29.97,ESE,103,0.0,1.0,89,0.00,,,0.00,weatherlink.com 1.10,2013-06-19 19:55:00,
2013-06-19 16:10:00,61.9,59.0,29.97,East,99,0.0,2.0,89,0.00,,,0.00,weatherlink.com 1.10,2013-06-19 20:10:00,
2013-06-19 16:25:00,61.1,58.0,29.97,ENE,66,0.0,1.0,89,0.00,,,0.00,weatherlink.com 1.10,2013-06-19 20:25:00,
2013-06-19 16:40:00,60.8,58.0,29.97,ENE,62,0.0,5.0,90,0.00,,,0.00,weatherlink.com 1.10,2013-06-19 20:40:00,
2013-06-19 16:55:00,60.7,58.0,29.97,ENE,74,0.0,1.0,90,0.00,,,0.00,weatherlink.com 1.10,2013-06-19 20:55:00,
2013-06-19 17:10:00,60.4,58.0,29.97,East,92,0.0,2.0,90,0.00,,,0.00,weatherlink.com 1.10,2013-06-19 21:10:00,
2013-06-19 17:25:00,60.7,58.0,29.98,East,92,0.0,1.0,89,0.00,,,0.00,weatherlink.com 1.10,2013-06-19 21:25:00,
2013-06-19 17:40:00,60.8,58.0,29.98,West,272,0.0,4.0,89,0.00,,,0.00,weatherlink.com 1.10,2013-06-19 21:40:00,
2013-06-19 17:55:00,60.4,58.0,29.98,West,269,0.0,0.0,90,0.00,,,0.00,weatherlink.com 1.10,2013-06-19 21:55:00,
2013-06-19 18:10:00,60.3,58.0,29.98,West,269,0.0,0.0,91,0.00,,,0.00,weatherlink.com 1.10,2013-06-19 22:10:00,
2013-06-19 18:25:00,60.3,58.0,29.98,West,269,0.0,0.0,92,0.00,,,0.00,weatherlink.com 1.10,2013-06-19 22:25:00,
2013-06-19 18:40:00,60.7,58.0,29.98,West,269,0.0,0.0,91,0.00,,,0.00,weatherlink.com 1.10,2013-06-19 22:40:00,
2013-06-19 18:55:00,62.0,58.0,29.98,WNW,290,0.0,3.0,85,0.00,,,0.00,weatherlink.com 1.10,2013-06-19 22:55:00,
2013-06-19 19:10:00,62.4,58.0,29.99,WNW,290,0.0,1.0,86,0.00,,,0.00,weatherlink.com 1.10,2013-06-19 23:10:00,
2013-06-19 19:25:00,61.2,57.0,29.99,WNW,290,0.0,0.0,87,0.00,,,0.00,weatherlink.com 1.10,2013-06-19 23:25:00,
2013-06-19 19:40:00,59.8,57.0,30.00,ESE,118,0.0,2.0,91,0.00,,,0.00,weatherlink.com 1.10,2013-06-19 23:40:00,
2013-06-19 19:55:00,59.2,57.0,30.00,ESE,118,0.0,0.0,93,0.00,,,0.00,weatherlink.com 1.10,2013-06-19 23:55:00,
2013-06-19 20:10:00,58.8,57.0,30.00,ESE,118,0.0,0.0,94,0.00,,,0.00,weatherlink.com 1.10,2013-06-20 00:10:00,
2013-06-19 20:25:00,58.4,57.0,30.00,ESE,115,0.0,2.0,94,0.00,,,0.00,weatherlink.com 1.10,2013-06-20 00:25:00,
2013-06-19 20:40:00,57.7,56.0,30.00,ESE,120,0.0,6.0,94,0.00,,,0.00,weatherlink.com 1.10,2013-06-20 00:40:00,
2013-06-19 20:55:00,57.2,56.0,30.00,SE,127,3.0,4.0,94,0.00,,,0.00,weatherlink.com 1.10,2013-06-20 00:55:00,
2013-06-19 21:10:00,57.0,56.0,30.01,ESE,115,1.0,4.0,96,0.00,,,0.00,weatherlink.com 1.10,2013-06-20 01:10:00,
2013-06-19 21:25:00,57.0,56.0,30.01,ESE,115,0.0,2.0,96,0.00,,,0.00,weatherlink.com 1.10,2013-06-20 01:25:00,
2013-06-19 21:40:00,56.8,56.0,30.02,ESE,119,0.0,4.0,97,0.00,,,0.00,weatherlink.com 1.10,2013-06-20 01:40:00,
2013-06-19 21:55:00,56.5,56.0,30.03,ESE,119,0.0,3.0,97,0.00,,,0.00,weatherlink.com 1.10,2013-06-20 01:55:00,
2013-06-19 22:10:00,56.1,55.0,30.03,ESE,113,0.0,3.0,97,0.00,,,0.00,weatherlink.com 1.10,2013-06-20 02:10:00,
2013-06-19 22:25:00,56.1,55.0,30.04,SE,125,2.0,3.0,97,0.00,,,0.00,weatherlink.com 1.10,2013-06-20 02:25:00,
2013-06-19 22:40:00,56.3,56.0,30.05,ESE,122,1.0,3.0,97,0.00,,,0.00,weatherlink.com 1.10,2013-06-20 02:40:00,
2013-06-19 22:55:00,55.9,55.0,30.05,ESE,103,1.0,5.0,97,0.00,,,0.00,weatherlink.com 1.10,2013-06-20 02:55:00,
2013-06-19 23:10:00,55.7,55.0,30.05,ESE,109,0.0,3.0,97,0.00,,,0.00,weatherlink.com 1.10,2013-06-20 03:10:00,
2013-06-19 23:25:00,55.4,55.0,30.06,ESE,107,0.0,2.0,97,0.00,,,0.00,weatherlink.com 1.10,2013-06-20 03:25:00,
2013-06-19 23:40:00,55.4,55.0,30.06,ESE,106,1.0,3.0,98,0.00,,,0.00,weatherlink.com 1.10,2013-06-20 03:40:00,
2013-06-19 23:55:00,55.3,55.0,30.06,ESE,115,0.0,2.0,98,0.00,,,0.00,weatherlink.com 1.10,2013-06-20 03:55:00,